Sneeuw/IJzel/Bevriezing van: 15-12-2017 01:00 tot: 08:59 waarschuwing voor: Sneeuw/IJzel/Bevriezing niveau: Geel info button

Weerstation Grootegast  Weerstation Grootegast


waarschuwing voor winterse neerslag Meer informatie rain snow radar


15 daagse weersverwachting Kirkkonummi (FI)

  • Overzicht
  • Per uur
  • 15 dagen
  • Extra
  • Vergelijk
  • Kaarten
  • Dagkaart
  • Meer »
  • Info
  • Statistieken
  • Directe link
    Temp 6h Neerslag Wind  
 09:24     15:14    Daglengte: 5:50 Vandaag
08:00
7.6 mm
4
warningclass
14:00
6.6 mm
3
20:00
4.9 mm
7
 09:25     15:14    Daglengte: 5:49 Morgen
02:00
18.2 mm
7
08:00
7.0 mm
5
14:00
 
4
20:00
10.9 mm
3
 09:25     15:14    Daglengte: 5:49 Zondag 17 Dec
02:00
12.0 mm
1
warningclass
08:00
-1°
15.2 mm
2
warningclass
14:00
-1°
67.1 mm
2
warningclass
20:00
-3°
56.0 mm
2
warningclass
 09:26     15:14    Daglengte: 5:48 Maandag 18 Dec
02:00
-4°
67.4 mm
1
warningclass
Locatie info
Region: Uusimaa
Latitude: 60.1237°N
Longitude: 24.4415°E
17 masl
Postcode: 02400
Temp/Neerslag /Baro Onweer/DauwpuntSneeuw
    Temp Baro 1h Neerslag Dauwpunt Wind UV BewolkingSneeuw  
 09:24     15:14    Daglengte: 5:50 Vandaag
05:00
Voelt als: -4.3°
990.0 hPa 1.6 mm
21%
-0.7°
5
Windvlaag: 6.9 m/s
19%9 cm warningclass
06:00
Voelt als: -3.7°
989.9 hPa 1.4 mm
21%
-0.3°
4
Windvlaag: 6.6 m/s
19%9 cm warningclass
07:00
Voelt als: -3.4°
989.8 hPa 1.4 mm
21%
-0.2°
4
Windvlaag: 5.8 m/s
19%9 cm warningclass
08:00
Voelt als: -2.9°
989.8 hPa 1.6 mm
21%
0.1°
4
Windvlaag: 4.7 m/s
19%9 cm warningclass
09:00
Voelt als: -2.7°
990.0 hPa 1.7 mm
21%
0.3°
3
Windvlaag: 5.1 m/s
19%9 cm warningclass
10:00
Voelt als: -2.3°
989.9 hPa 1.7 mm
21%
0.4°
3
Windvlaag: 4.6 m/s
19%9 cm warningclass
11:00
Voelt als: -2.1°
989.9 hPa 1.6 mm
21%
0.6°
3
Windvlaag: 3.5 m/s
19%9 cm warningclass
12:00
Voelt als: -1.9°
989.9 hPa
21%
0.9°
3
Windvlaag: 3.6 m/s
19%9 cm
13:00
Voelt als: -1.6°
990.1 hPa
21%
1.1°
3
Windvlaag: 3.9 m/s
19%9 cm
14:00
Voelt als: -1.3°
990.2 hPa 1.6 mm
21%
1.5°
3
Windvlaag: 5.6 m/s
19%9 cm
15:00
Voelt als: -1.0°
990.2 hPa 1.7 mm
21%
1.8°
4
Windvlaag: 6 m/s
19%9 cm
16:00
Voelt als: -1.7°
990.6 hPa 1.6 mm
21%
1.4°
5
Windvlaag: 7.4 m/s
19%9 cm
17:00
Voelt als: -2.1°
991.1 hPa
21%
1.5°
5
Windvlaag: 8.5 m/s
19%9 cm
18:00
Voelt als: -2.1°
991.4 hPa 1.6 mm
21%
1.6°
5
Windvlaag: 8.9 m/s
19%9 cm
19:00
Voelt als: -2.1°
991.6 hPa
21%
1.7°
6
Windvlaag: 10 m/s
19%9 cm
20:00
Voelt als: -2.6°
991.8 hPa   1.4°
7
Windvlaag: 11.7 m/s
19%8 cm
21:00
Voelt als: -2.8°
992.0 hPa 6.8 mm
21%
1.5°
7
Windvlaag: 14.4 m/s
19%9 cm
22:00
Voelt als: -3.4°
992.0 hPa 2.3 mm
21%
1.1°
8
Windvlaag: 15.3 m/s
19%9 cm
23:00
Voelt als: -3.8°
992.2 hPa 2.3 mm
21%
1.2°
8
Windvlaag: 14.9 m/s
19%9 cm
 09:25     15:14    Daglengte: 5:49 Morgen
00:00
Voelt als: -3.6°
992.5 hPa 2.2 mm
21%
1.1°
7
Windvlaag: 14.5 m/s
19%9 cm
01:00
Voelt als: -3.5°
992.8 hPa 2.3 mm
21%
1.0°
7
Windvlaag: 13 m/s
19%9 cm
02:00
Voelt als: -3.8°
992.9 hPa 2.4 mm
21%
0.9°
7
Windvlaag: 12 m/s
19%9 cm
03:00
Voelt als: -4.3°
993.0 hPa 2.5 mm
21%
0.6°
7
Windvlaag: 12.2 m/s
19%9 cm
04:00
Voelt als: -4.1°
993.1 hPa 2.4 mm
21%
0.7°
7
Windvlaag: 12.1 m/s
18%9 cm
05:00
Voelt als: -3.8°
993.2 hPa 2.2 mm
21%
0.8°
6
Windvlaag: 12.2 m/s
18%9 cm
06:00
Voelt als: -3.2°
993.3 hPa
21%
1.1°
5
Windvlaag: 11.5 m/s
17%9 cm
07:00
Voelt als: -2.9°
993.4 hPa
21%
1.1°
5
Windvlaag: 10.8 m/s
15%9 cm
08:00
Voelt als: -2.9°
993.7 hPa
21%
1.2°
5
Windvlaag: 10.2 m/s
15%9 cm
09:00
Voelt als: -2.8°
994.1 hPa
21%
1.2°
5
Windvlaag: 10.1 m/s
17%10 cm
10:00
Voelt als: -2.7°
994.5 hPa
21%
1.3°
5
Windvlaag: 9.5 m/s
19%10 cm
11:00
Voelt als: -2.4°
994.7 hPa
21%
1.2°
4
Windvlaag: 9.2 m/s
18%10 cm
12:00
Voelt als: -2.1°
995.0 hPa
21%
1.4°
4
Windvlaag: 9.3 m/s
16%10 cm
13:00
Voelt als: -1.7°
995.2 hPa
21%
1.5°
4
Windvlaag: 9.1 m/s
11%10 cm
14:00
Voelt als: -1.3°
995.4 hPa
21%
1.8°
4
Windvlaag: 9 m/s
11%10 cm
15:00
Voelt als: -1.7°
995.5 hPa
21%
1.8°
4
Windvlaag: 9.3 m/s
14%10 cm
16:00
Voelt als: -1.7°
995.9 hPa
21%
1.8°
4
Windvlaag: 9.2 m/s
19%10 cm
17:00
Voelt als: -1.1°
996.4 hPa 3.5 mm
21%
1.7°
3
Windvlaag: 8.4 m/s
19%11 cm
18:00
Voelt als: -1.1°
997.0 hPa 3.7 mm
21%
1.7°
3
Windvlaag: 8.2 m/s
19%11 cm
19:00
Voelt als: -1.2°
997.3 hPa 3.7 mm
21%
1.6°
3
Windvlaag: 8.1 m/s
19%11 cm
20:00
Voelt als: -0.8°
997.7 hPa   1.7°
3
Windvlaag: 7.4 m/s
19%11 cm
21:00
Voelt als: -0.6°
998.0 hPa 12.0 mm
21%
1.4°
2
Windvlaag: 6.7 m/s
17%11 cm
22:00
Voelt als: -0.8°
998.2 hPa
21%
0.8°
2
Windvlaag: 5.3 m/s
17%11 cm
23:00
Voelt als: 0.0°
1000.3 hPa
100%
1.3°
1
Windvlaag: 3.1 m/s
75%11 cm
 09:25     15:14    Daglengte: 5:49 Zondag 17 Dec
00:00
Voelt als: -0.1°
1000.7 hPa
100%
0.7°
1
Windvlaag: 0.7 m/s
74%11 cm
01:00
Voelt als: -1.1°
1001.0 hPa
100%
0.3°
1
Windvlaag: -1.3 m/s
80%11 cm
02:00
Voelt als: -1.2°
1001.4 hPa
100%
0.0°
1
Windvlaag: -1.4 m/s
80%11 cm
03:00
-0°
Voelt als: -1.4°
1001.8 hPa 3.8 mm
100%
-0.1°
1
Windvlaag: -0.9 m/s
80%11 cm warningclass
04:00
-0°
Voelt als: -1.9°
1002.1 hPa 3.8 mm
100%
-0.2°
1
Windvlaag: -1.3 m/s
80%11 cm warningclass
05:00
-0°
Voelt als: -2.5°
1002.6 hPa 3.8 mm
100%
-0.5°
2
Windvlaag: -1.6 m/s
80%11 cm warningclass
06:00
-1°
Voelt als: -2.8°
1003.2 hPa 3.8 mm
100%
-0.9°
2
Windvlaag: -1.5 m/s
80%11 cm warningclass
07:00
-1°
Voelt als: -3.1°
1003.7 hPa
100%
-1.4°
2
Windvlaag: -1.6 m/s
80%11 cm
08:00
-1°
Voelt als: -3.5°
1004.2 hPa
100%
-1.6°
2
Windvlaag: -2 m/s
80%11 cm
09:00
-1°
Voelt als: -3.2°
1001.0 hPa 11.2 mm
100%
-1.4°
2
Windvlaag: 4 m/s
0%11 cm warningclass
10:00
-1°
Voelt als: -4.8°
1002.1 hPa 11.2 mm
100%
-2.0°
3
Windvlaag: 5.9 m/s
0%11 cm warningclass
11:00
-1°
Voelt als: -5.0°
1003.0 hPa 11.2 mm
100%
-2.7°
3
Windvlaag: 6.4 m/s
0%11 cm warningclass
12:00
-1°
Voelt als: -3.9°
1003.5 hPa 11.2 mm
100%
-2.3°
2
Windvlaag: 4.7 m/s
0%11 cm warningclass
13:00
-1°
Voelt als: -3.7°
1003.7 hPa 11.2 mm
100%
-1.9°
2
Windvlaag: 5 m/s
0%11 cm warningclass
14:00
-1°
Voelt als: -3.9°
1004.0 hPa 11.2 mm
100%
-2.0°
2
Windvlaag: 4 m/s
0%11 cm warningclass
15:00
-4°
Voelt als: -7.6°
1004.7 hPa 11.2 mm
100%
-4.3°
3
Windvlaag: 5.5 m/s
0%11 cm warningclass
16:00
-3°
Voelt als: -7.3°
1005.3 hPa 11.2 mm
100%
-3.5°
3
Windvlaag: 5.7 m/s
0%11 cm warningclass
17:00
-2°
Voelt als: -5.9°
1006.0 hPa 11.2 mm
100%
-2.4°
3
Windvlaag: 4.5 m/s
0%11 cm warningclass
18:00
-2°
Voelt als: -5.1°
1006.4 hPa 11.2 mm
100%
-2.1°
2
Windvlaag: 4.1 m/s
0%11 cm warningclass
19:00
-2°
Voelt als: -5.2°
1006.9 hPa 11.2 mm
100%
-2.4°
2
Windvlaag: 3.9 m/s
0%11 cm warningclass
20:00
-3°
Voelt als: -4.8°
1007.2 hPa   -2.7°
2
Windvlaag: 3.1 m/s
0%11 cm
21:00
-3°
Voelt als: -4.7°
1007.8 hPa 11.2 mm
100%
-3.3°
1
Windvlaag: 3.7 m/s
0%11 cm warningclass
22:00
-4°
Voelt als: -4.3°
1008.0 hPa 11.2 mm
100%
-3.7°
1
Windvlaag: 3.2 m/s
0%11 cm warningclass
23:00
-4°
Voelt als: -4.7°
1008.3 hPa 11.2 mm
100%
-4.1°
1
Windvlaag: 3.2 m/s
0%11 cm warningclass
 09:26     15:14    Daglengte: 5:48 Maandag 18 Dec
00:00
-4°
Voelt als: -5.0°
1008.3 hPa 11.2 mm
100%
-4.4°
1
Windvlaag: 2.2 m/s
0%11 cm warningclass
01:00
-4°
Voelt als: -5.4°
1008.6 hPa 11.2 mm
100%
-4.4°
1
Windvlaag: 1.8 m/s
0%11 cm warningclass
02:00
-4°
Voelt als: -5.4°
1008.8 hPa 11.3 mm
100%
-3.8°
1
Windvlaag: 1.4 m/s
0%11 cm warningclass
03:00
-3°
Voelt als: -3.8°
1009.0 hPa 11.3 mm
100%
-3.0°
1
Windvlaag: 1.1 m/s
0%11 cm warningclass
04:00
-2°
Voelt als: -3.2°
1009.1 hPa 11.4 mm
100%
-1.8°
1
Windvlaag: 1.5 m/s
0%11 cm warningclass
Temp/Neerslag /Baro Onweer/DauwpuntSneeuw
    Temp Baro Neerslag Dauwpunt Wind BewolkingSneeuw  
 09:24     15:14    Daglengte: 5:50 Vandaag
05:00
Voelt als: -4.3°
990.0 hPa 3.1 mm -0.7°
5
19%9 cm warningclass
08:00
Voelt als: -2.9°
989.8 hPa 4.5 mm 0.1°
4
19%9 cm warningclass
11:00
Voelt als: -2.1°
989.9 hPa 5.0 mm 0.6°
3
19%9 cm warningclass
14:00
Voelt als: -1.3°
990.2 hPa 1.6 mm 1.5°
3
19%9 cm
17:00
Voelt als: -2.1°
991.1 hPa 3.3 mm 1.5°
5
19%9 cm
20:00
Voelt als: -2.6°
991.8 hPa 1.6 mm 1.4°
7
19%8 cm
23:00
Voelt als: -3.8°
992.2 hPa 11.3 mm 1.2°
8
19%9 cm
 09:25     15:14    Daglengte: 5:49 Morgen
02:00
Voelt als: -3.8°
992.9 hPa 6.9 mm 0.9°
7
19%9 cm
05:00
Voelt als: -3.8°
993.2 hPa 7.0 mm 0.8°
6
18%9 cm
08:00
Voelt als: -2.9°
993.7 hPa   1.2°
5
15%9 cm
11:00
Voelt als: -2.4°
994.7 hPa   1.2°
4
18%10 cm
14:00
Voelt als: -1.3°
995.4 hPa   1.8°
4
11%10 cm
17:00
Voelt als: -1.1°
996.4 hPa 3.5 mm 1.7°
3
19%11 cm
20:00
Voelt als: -0.8°
997.7 hPa 7.4 mm 1.7°
3
19%11 cm
23:00
Voelt als: 0.0°
1000.3 hPa 12.0 mm 1.3°
1
75%11 cm
 09:25     15:14    Daglengte: 5:49 Zondag 17 Dec
02:00
Voelt als: -1.2°
1001.4 hPa   0.0°
1
80%11 cm
05:00
-0°
Voelt als: -2.5°
1002.6 hPa 11.4 mm -0.5°
2
80%11 cm warningclass
08:00
-1°
Voelt als: -3.5°
1004.2 hPa 3.8 mm -1.6°
2
80%11 cm warningclass
11:00
-1°
Voelt als: -5.0°
1003.0 hPa 33.5 mm -2.7°
3
0%11 cm warningclass
14:00
-1°
Voelt als: -3.9°
1004.0 hPa 33.6 mm -2.0°
2
0%11 cm warningclass
17:00
-2°
Voelt als: -5.9°
1006.0 hPa 33.6 mm -2.4°
3
0%11 cm warningclass
20:00
-3°
Voelt als: -4.8°
1007.2 hPa 22.4 mm -2.7°
2
0%11 cm warningclass
23:00
-4°
Voelt als: -4.7°
1008.3 hPa 33.6 mm -4.1°
1
0%11 cm warningclass
 09:26     15:14    Daglengte: 5:48 Maandag 18 Dec
02:00
-4°
Voelt als: -5.4°
1008.8 hPa 33.8 mm -3.8°
1
0%11 cm warningclass
05:00
-1°
Voelt als: -0.8°
1009.2 hPa 34.2 mm -0.8°
1
0%11 cm warningclass
08:00
-0°
Voelt als: -1.2°
1010.5 hPa 34.3 mm -0.2°
1
0%11 cm warningclass
11:00
-3°
Voelt als: -6.3°
1018.3 hPa   -5.4°
2
0%
14:00
-3°
Voelt als: -6.1°
1018.7 hPa   -5.1°
2
0%
17:00
-3°
Voelt als: -7.6°
1020.2 hPa   -5.8°
3
0%
20:00
-3°
Voelt als: -7.7°
1021.4 hPa   -6.1°
3
0%
23:00
-4°
Voelt als: -7.5°
1021.9 hPa   -5.8°
3
0%
 09:27     15:14    Daglengte: 5:47 Dinsdag 19 Dec
02:00
-4°
Voelt als: -7.7°
1022.5 hPa   -5.5°
3
0%
05:00
-4°
Voelt als: -7.8°
1023.1 hPa   -5.5°
3
0%
08:00
-4°
Voelt als: -8.0°
1024.2 hPa   -6.2°
3
0%
11:00
-4°
Voelt als: -7.9°
1025.9 hPa   -6.2°
3
0%
14:00
-4°
Voelt als: -7.2°
1026.3 hPa   -6.0°
2
0%
17:00
-5°
Voelt als: -8.1°
1027.0 hPa   -6.7°
2
0%
20:00
-5°
Voelt als: -8.1°
1027.7 hPa   -6.9°
2
0%
23:00
-5°
Voelt als: -6.9°
1027.6 hPa   -7.0°
1
0%
 09:28     15:15    Daglengte: 5:47 Woensdag 20 Dec
02:00
-5°
Voelt als: -6.1°
1027.4 hPa   -6.8°
1
0%
05:00
-4°
1026.2 hPa   -6.1°
0
1%
08:00
-3°
Voelt als: -4.9°
1025.6 hPa   -5.1°
1
1%
11:00
-1°
Voelt als: -3.9°
1025.1 hPa   -3.2°
2
1%
14:00
Voelt als: -2.2°
1023.7 hPa   -1.0°
2
1%
17:00
Voelt als: -2.1°
1022.7 hPa 0.3 mm -0.5°
3
1% warningclass
20:00
Voelt als: -2.2°
1023.4 hPa 1.6 mm -0.8°
3
1% warningclass
23:00
Voelt als: -1.6°
1024.3 hPa 1.9 mm -0.7°
2
1% warningclass
 09:28     15:15    Daglengte: 5:47 Donderdag 21 Dec
02:00
Voelt als: -1.9°
1024.7 hPa 3.1 mm -0.6°
2
1% warningclass
05:00
Voelt als: -2.1°
1024.1 hPa 0.2 mm -0.2°
2
1% warningclass
08:00
Voelt als: -2.4°
1023.7 hPa 0.2 mm -0.4°
2
1% warningclass
11:00
-0°
Voelt als: -2.9°
1023.1 hPa   -1.4°
2
1%
14:00
-0°
Voelt als: -1.0°
1020.1 hPa   -1.1°
1
1%
17:00
Voelt als: -2.8°
1018.1 hPa   -0.4°
4
1%
20:00
Voelt als: -3.6°
1015.5 hPa 0.3 mm -0.7°
5
1% warningclass
23:00
Voelt als: -4.1°
1012.2 hPa 0.2 mm -0.6°
6
1% warningclass
 09:29     15:16    Daglengte: 5:47 Vrijdag 22 Dec
02:00
Voelt als: -5.5°
1008.5 hPa 0.9 mm -1.5°
7
1% warningclass
08:00
-2°
Voelt als: -8.1°
1001.4 hPa 3.2 mm -3.1°
7
1% warningclass
14:00
-2°
Voelt als: -7.4°
997.5 hPa 3.8 mm -3.0°
5
1% warningclass
20:00
-2°
Voelt als: -6.6°
995.5 hPa 2.6 mm -3.3°
4
1% warningclass
 09:29     15:16    Daglengte: 5:47 Zaterdag 23 Dec
02:00
-2°
Voelt als: -7.6°
994.7 hPa 4.9 mm -3.7°
5
1% warningclass
08:00
-3°
Voelt als: -9.6°
994.3 hPa 3.3 mm -4.8°
6
1% warningclass
14:00
-5°
Voelt als: -11.1°
995.2 hPa 2.0 mm -6.2°
6
1% warningclass
20:00
-7°
Voelt als: -11.9°
996.6 hPa 0.6 mm -8.2°
3
1% warningclass
 09:29     15:17    Daglengte: 5:48 Zondag 24 Dec
02:00
-5°
Voelt als: -9.3°
998.2 hPa 0.4 mm -6.7°
2
1% warningclass
08:00
-6°
Voelt als: -9.9°
999.8 hPa 0.6 mm -7.0°
2
1% warningclass
14:00
-5°
Voelt als: -8.3°
1001.8 hPa 0.4 mm -6.7°
2
1% warningclass
20:00
-2°
Voelt als: -4.0°
1007.7 hPa 0.6 mm -4.3°
2
0%
 09:29     15:18    Daglengte: 5:49 Maandag 25 Dec
02:00
-2°
Voelt als: -3.8°
1008.0 hPa   -3.7°
2
0%
08:00
-2°
Voelt als: -4.2°
1008.9 hPa 0.5 mm -4.0°
2
0%
14:00
-2°
Voelt als: -4.2°
1010.3 hPa 0.6 mm -4.0°
2
0%
20:00
-2°
Voelt als: -4.8°
1011.4 hPa 0.3 mm -4.1°
2
0%
 09:29     15:19    Daglengte: 5:50 Dinsdag 26 Dec
02:00
-2°
Voelt als: -5.2°
1012.5 hPa 0.4 mm -3.9°
2
0%
08:00
-2°
Voelt als: -4.5°
1013.6 hPa 0.2 mm -4.4°
2
0%
14:00
-2°
Voelt als: -4.2°
1015.1 hPa 0.2 mm -4.0°
2
0%
20:00
-2°
Voelt als: -4.0°
1015.8 hPa 0.2 mm -4.0°
2
0%
 09:29     15:20    Daglengte: 5:51 Woensdag 27 Dec
02:00
-2°
Voelt als: -4.0°
1016.3 hPa 0.5 mm -3.9°
2
0%
08:00
-2°
Voelt als: -4.8°
1016.4 hPa 0.5 mm -3.7°
2
0%
14:00
-1°
Voelt als: -4.9°
1015.3 hPa 1.5 mm -2.8°
4
0%
20:00
-1°
Voelt als: -4.6°
1015.1 hPa 1.1 mm -2.7°
3
0%
 09:29     15:21    Daglengte: 5:52 Donderdag 28 Dec
02:00
-1°
Voelt als: -3.3°
1016.5 hPa 0.4 mm -2.8°
2
0%
08:00
-1°
Voelt als: -2.4°
1017.6 hPa 0.3 mm -2.7°
1
0%
14:00
-0°
Voelt als: -2.0°
1019.6 hPa 0.4 mm -2.5°
1
0%
20:00
-1°
Voelt als: -2.3°
1021.1 hPa 0.4 mm -3.1°
1
0%
 09:29     15:22    Daglengte: 5:53 Vrijdag 29 Dec
02:00
-2°
Voelt als: -2.5°
1022.2 hPa 0.3 mm -3.9°
1
0%
08:00
-2°
1022.7 hPa 0.2 mm -4.5°
0
0%
14:00
-2°
Voelt als: -2.3°
1023.9 hPa 0.3 mm -5.0°
0
0%
20:00
-3°
Voelt als: -3.3°
1024.1 hPa 0.4 mm -5.2°
1
0%
 09:29     15:24    Daglengte: 5:55 Zaterdag 30 Dec
02:00
-3°
Voelt als: -4.6°
1024.6 hPa 0.3 mm -5.1°
1
0%
  CAPE Lifted Index Hail Supercell Tornado SRH 3km CL BTM PRES CL TOP PRES Swiss DWD icon SMHI TS
 09:24     15:14    Daglengte: 5:50 Vandaag
05:00 7 J/kg 3.7 K 0 % 0 % 0 % 0 m²/s² 0 0 5.11
06:00 5 J/kg 3.7 K 0 % 0 % 0 % 0 m²/s² 0 0 4.96
07:00 4 J/kg 3.3 K 0 % 0 % 0 % 0 m²/s² 0 0 4.83
08:00 4 J/kg 2.5 K 0 % 0 % 0 % 0 m²/s² 0 0 3.76
09:00 4 J/kg 1.8 K 0 % 0 % 0 % 0 m²/s² 0 0 2.7
10:00 3 J/kg 1.4 K 0 % 0 % 0 % 0 m²/s² 0 0 2.18
11:00 2 J/kg 1.3 K 0 % 0 % 0 % 0 m²/s² 0 0 2.5
12:00 2 J/kg 0.8 K 0 % 0 % 0 % 0 m²/s² 0 0 1.73
13:00 4 J/kg 0.6 K 0 % 0 % 0 % 0 m²/s² 0 0 1.62
14:00 4 J/kg 0.9 K 0 % 0 % 0 % 0 m²/s² 0 0 1.62
15:00 28 J/kg 1.0 K 0 % 0 % 0 % 0 m²/s² 0 0 2.08
16:00 7 J/kg 1.8 K 0 % 0 % 0 % 0 m²/s² 0 0 3.3
17:00 7 J/kg 1.3 K 0 % 0 % 0 % 0 m²/s² 0 0 3.19
18:00 3 J/kg 0.5 K 0 % 0 % 0 % 0 m²/s² 0 0 2
19:00 7 J/kg 1.7 K 0 % 0 % 0 % 0 m²/s² 0 0 2.6
20:00 2 J/kg 1.9 K 0 % 0 % 0 % 0 m²/s² 0 0 2.56
21:00 1 J/kg 1.4 K 0 % 0 % 0 % 0 m²/s² 0 0 1.94
22:00 3 J/kg 1.1 K 0 % 0 % 0 % 0 m²/s² 0 0 1.64
23:00 2 J/kg 1.2 K 0 % 0 % 0 % 0 m²/s² 0 0 1.77
 09:25     15:14    Daglengte: 5:49 Morgen
00:00 3 J/kg 1.5 K 0 % 0 % 0 % 0 m²/s² 0 0 2.37
01:00 5 J/kg 1.7 K 0 % 0 % 0 % 0 m²/s² 0 0 2.87
02:00 7 J/kg 2.2 K 0 % 0 % 0 % 0 m²/s² 0 0 3.58
03:00 6 J/kg 2.3 K 0 % 0 % 0 % 0 m²/s² 0 0 3.86
04:00 3 J/kg 2.4 K 0 % 0 % 0 % 0 m²/s² 0 0 3.81
05:00 2 J/kg 2.5 K 0 % 0 % 0 % 0 m²/s² 0 0 3.58
06:00 2 J/kg 2.5 K 0 % 0 % 0 % 0 m²/s² 0 0 3.04
07:00 4 J/kg 2.5 K 0 % 0 % 0 % 0 m²/s² 0 0 3.04
08:00 2 J/kg 3.0 K 0 % 0 % 0 % 0 m²/s² 0 0 3.57
09:00 3 J/kg 3.5 K 0 % 0 % 0 % 0 m²/s² 0 0 4.16
10:00 3 J/kg 4.0 K 0 % 0 % 0 % 0 m²/s² 0 0 4.99
11:00 5 J/kg 4.6 K 0 % 0 % 0 % 0 m²/s² 0 0 6.4
12:00 10 J/kg 5.1 K 0 % 0 % 0 % 0 m²/s² 0 0 7.59
13:00 11 J/kg 4.8 K 0 % 0 % 0 % 0 m²/s² 0 0 7.98
14:00 15 J/kg 4.3 K 0 % 0 % 0 % 0 m²/s² 0 0 8.2
15:00 11 J/kg 4.1 K 0 % 0 % 0 % 0 m²/s² 0 0 8.54
16:00 2 J/kg 3.7 K 0 % 0 % 0 % 0 m²/s² 0 0 8.02
17:00 10 J/kg 3.6 K 0 % 0 % 0 % 0 m²/s² 0 0 8.67
18:00 10 J/kg 3.8 K 0 % 0 % 0 % 0 m²/s² 0 0 9.14
19:00 4 J/kg 4.0 K 0 % 0 % 0 % 0 m²/s² 0 0 9.52
20:00 1 J/kg 3.9 K 0 % 0 % 0 % 0 m²/s² 0 0 9.42
21:00 5 J/kg 3.8 K 0 % 0 % 0 % 0 m²/s² 0 0 8.99
22:00 4 J/kg 3.3 K 0 % 0 % 0 % 0 m²/s² 0 0 8.37
23:00 2 J/kg 3.8 K 0 % 0 % 0 % 0 m²/s² 0 0 8.45
 09:25     15:14    Daglengte: 5:49 Zondag 17 Dec
00:00 1 J/kg 4.0 K 0 % 0 % 0 % 0 m²/s² 0 0 8.32
01:00 1 J/kg 3.7 K 0 % 0 % 0 % 0 m²/s² 0 0 7.6
02:00 2 J/kg 3.6 K 0 % 0 % 0 % 0 m²/s² 0 0 7.11
03:00 1 J/kg 3.3 K 0 % 0 % 0 % 0 m²/s² 0 0 6.54
04:00 1 J/kg 3.4 K 0 % 0 % 0 % 0 m²/s² 0 0 6.4
05:00 1 J/kg 3.5 K 0 % 0 % 0 % 0 m²/s² 0 0 6.26
06:00 1 J/kg 3.8 K 0 % 0 % 0 % 0 m²/s² 0 0 6.35
07:00 0 J/kg 3.8 K 0 % 0 % 0 % 0 m²/s² 0 0 6.2
08:00 0 J/kg 3.7 K 0 % 0 % 0 % 0 m²/s² 0 0 6.16
09:00 1 J/kg 3.7 K 0 % 0 % 0 % 0 m²/s² 0 0 6.46
10:00 0 J/kg 3.6 K 0 % 0 % 0 % 0 m²/s² 0 0 6.21
11:00 2 J/kg 3.8 K 0 % 0 % 0 % 0 m²/s² 0 0 6.11
12:00 1 J/kg 4.2 K 0 % 0 % 0 % 0 m²/s² 0 0 7.47
13:00 0 J/kg 4.4 K 0 % 0 % 0 % 0 m²/s² 0 0 9.08
14:00 0 J/kg 4.8 K 0 % 0 % 0 % 0 m²/s² 0 0 9.24
15:00 0 J/kg 5.0 K 0 % 0 % 0 % 0 m²/s² 0 0 7.85
16:00 1 J/kg 5.1 K 0 % 0 % 0 % 0 m²/s² 0 0 8.34
17:00 0 J/kg 5.0 K 0 % 0 % 0 % 0 m²/s² 0 0 8.24
18:00 1 J/kg 4.8 K 0 % 0 % 0 % 0 m²/s² 0 0 7.95
19:00 1 J/kg 4.5 K 0 % 0 % 0 % 0 m²/s² 0 0 6.66
20:00 1 J/kg 4.1 K 0 % 0 % 0 % 0 m²/s² 0 0 6.05
21:00 1 J/kg 4.2 K 0 % 0 % 0 % 0 m²/s² 0 0 5.94
22:00 0 J/kg 4.5 K 0 % 0 % 0 % 0 m²/s² 0 0 6.03
23:00 0 J/kg 4.5 K 0 % 0 % 0 % 0 m²/s² 0 0 5.76
 09:26     15:14    Daglengte: 5:48 Maandag 18 Dec
00:00 0 J/kg 4.7 K 0 % 0 % 0 % 0 m²/s² 0 0 5.87
01:00 0 J/kg 4.8 K 0 % 0 % 0 % 0 m²/s² 0 0 5.94
02:00 2 J/kg 5.3 K 0 % 0 % 0 % 0 m²/s² 0 0 6.65
03:00 2 J/kg 5.4 K 0 % 0 % 0 % 0 m²/s² 0 0 6.75
04:00 1 J/kg 6.3 K 0 % 0 % 0 % 0 m²/s² 0 0 7.77
Temp Baro Wind Neerslag
  EWN Forecast EWN WRFDA DWD ICON FMI HIRLAM MET Norway GFS
 09:24     15:14    Daglengte: 5:50 Vandaag
05:00 0.5° 990.0 hPa 5.1 m/s 3.1 mm 0.5° 987.7 hPa 5.1 m/s 3.9 mm 0.9° 990.2 hPa 4.5 m/s 0.0 mm 0.9° 990.8 hPa 5.0 m/s
08:00 0.8° 989.8 hPa 3.5 m/s 4.5 mm 0.9° 987.4 hPa 3.5 m/s 12.1 mm 1.1° 990.0 hPa 3.0 m/s 0.0 mm 1.2° 990.8 hPa 3.7 m/s
11:00 1.2° 989.9 hPa 3.0 m/s 5.0 mm 1.5° 988.2 hPa 3.2 m/s 12.7 mm 1.4° 989.8 hPa 3.0 m/s 0.0 mm 1.3° 991.6 hPa 3.0 m/s
14:00 1.9° 990.2 hPa 3.1 m/s 1.6 mm 1.9° 988.5 hPa 3.9 m/s 13.0 mm 2.1° 990.2 hPa 2.3 m/s 0.0 mm 1.9° 992.2 hPa 3.1 m/s
17:00 2.3° 991.1 hPa 5.2 m/s 3.3 mm 1.4° 989.4 hPa 5.6 m/s 13.3 mm 3.2° 991.1 hPa 4.4 m/s 0.0 mm 2.5° 993.1 hPa 4.9 m/s
20:00 2.6° 991.8 hPa 7.0 m/s 1.6 mm 2.0° 989.6 hPa 7.6 m/s 9.1 mm 2.9° 991.9 hPa 5.4 m/s 0.0 mm 2.3° 993.9 hPa 5.3 m/s
23:00 2.0° 992.2 hPa 8.1 m/s 11.3 mm 1.2° 989.9 hPa 8.4 m/s 17.1 mm 2.1° 992.4 hPa 6.2 m/s 0.0 mm 2.4° 994.6 hPa 7.2 m/s
 09:25     15:14    Daglengte: 5:49 Morgen
02:00 1.6° 992.9 hPa 6.8 m/s 6.9 mm 0.0° 990.3 hPa 6.8 m/s 17.8 mm 1.8° 993.1 hPa 6.5 m/s 0.0 mm 2.0° 995.2 hPa 7.1 m/s
05:00 1.4° 993.2 hPa 6.4 m/s 7.0 mm -0.3° 990.1 hPa 6.4 m/s 18.4 mm 1.9° 993.5 hPa 5.3 m/s 0.0 mm 1.6° 995.6 hPa 6.6 m/s
08:00 1.6° 993.7 hPa 4.8 m/s 0.0 mm 0.1° 990.2 hPa 4.3 m/s 20.4 mm 2.0° 994.0 hPa 4.1 m/s 0.0 mm 1.6° 996.3 hPa 5.9 m/s
11:00 1.7° 994.7 hPa 4.3 m/s 0.0 mm 1.0° 991.3 hPa 4.1 m/s 24.2 mm 1.7° 994.9 hPa 3.1 m/s 0.0 mm 1.6° 997.4 hPa 4.6 m/s
14:00 2.2° 995.4 hPa 3.5 m/s 0.0 mm 1.3° 991.7 hPa 2.5 m/s 25.1 mm 2.3° 995.5 hPa 2.9 m/s 0.0 mm 1.5° 997.9 hPa 3.3 m/s
17:00 2.1° 996.4 hPa 3.2 m/s 3.5 mm 1.2° 992.7 hPa 2.7 m/s 27.3 mm 2.6° 996.5 hPa 2.4 m/s 0.0 mm 1.2° 999.0 hPa 3.2 m/s
20:00 2.2° 997.7 hPa 2.9 m/s 7.4 mm 0.5° 994.5 hPa 0.9 m/s 21.0 mm 2.4° 997.6 hPa 2.5 m/s 0.0 mm 1.2° 999.9 hPa 3.2 m/s
23:00 1.3° 1000.3 hPa 1.4 m/s 12.0 mm 0.7° 995.9 hPa 0.8 m/s 32.7 mm 0.7° 1001.0 hPa 2.2 m/s
 09:25     15:14    Daglengte: 5:49 Zondag 17 Dec
02:00 0.0° 1001.4 hPa 1.2 m/s 0.0 mm -0.6° 997.2 hPa 1.3 m/s 33.0 mm 1.2° 1002.1 hPa 1.4 m/s
05:00 -0.5° 1002.6 hPa 1.6 m/s 11.4 mm -0.7° 998.5 hPa 1.8 m/s 33.2 mm 0.3° 1003.0 hPa 0.7 m/s
08:00 -1.1° 1004.2 hPa 1.8 m/s 3.8 mm -0.9° 1000.4 hPa 1.1 m/s 33.5 mm -0.9° 1004.8 hPa 1.8 m/s
11:00 -1.4° 1003.0 hPa 2.8 m/s 33.5 mm -1.4° 1003.0 hPa 2.8 m/s 33.5 mm -1.3° 1007.2 hPa 1.8 m/s
14:00 -0.9° 1004.0 hPa 2.3 m/s 33.6 mm -0.9° 1004.0 hPa 2.3 m/s 33.6 mm -1.2° 1009.0 hPa 1.8 m/s
17:00 -2.4° 1006.0 hPa 2.5 m/s 33.6 mm -2.4° 1006.0 hPa 2.5 m/s 33.6 mm -2.3° 1010.5 hPa 1.7 m/s
20:00 -2.6° 1007.2 hPa 1.6 m/s 22.4 mm -2.6° 1007.2 hPa 1.6 m/s 22.4 mm -2.8° 1012.1 hPa 1.7 m/s
23:00 -4.0° 1008.3 hPa 0.8 m/s 33.6 mm -4.0° 1008.3 hPa 0.8 m/s 33.6 mm -3.0° 1013.5 hPa 1.5 m/s
 09:26     15:14    Daglengte: 5:48 Maandag 18 Dec
02:00 -3.7° 1008.8 hPa 1.2 m/s 33.8 mm -3.7° 1008.8 hPa 1.2 m/s 33.8 mm -3.2° 1014.7 hPa 1.6 m/s
05:00 -0.8° 1009.2 hPa 0.5 m/s 34.2 mm -0.8° 1009.2 hPa 0.5 m/s 34.2 mm -3.4° 1015.4 hPa 1.8 m/s
08:00 -0.2° 1010.5 hPa 1.1 m/s 34.3 mm -0.2° 1010.5 hPa 1.1 m/s 34.3 mm -3.5° 1016.7 hPa 2.1 m/s
11:00 -3.1° 1018.3 hPa 2.2 m/s 0.0 mm -3.1° 1018.3 hPa 2.2 m/s 0.0 mm
14:00 -2.6° 1018.7 hPa 2.5 m/s 0.0 mm -2.6° 1018.7 hPa 2.5 m/s 0.0 mm
17:00 -3.3° 1020.2 hPa 3.1 m/s 0.0 mm -3.3° 1020.2 hPa 3.1 m/s 0.0 mm
20:00 -3.4° 1021.4 hPa 3.1 m/s 0.0 mm -3.4° 1021.4 hPa 3.1 m/s 0.0 mm
23:00 -3.6° 1021.9 hPa 2.6 m/s 0.0 mm -3.6° 1021.9 hPa 2.6 m/s 0.0 mm
 09:27     15:14    Daglengte: 5:47 Dinsdag 19 Dec
02:00 -3.8° 1022.5 hPa 2.7 m/s 0.0 mm -3.8° 1022.5 hPa 2.7 m/s 0.0 mm
05:00 -4.0° 1023.1 hPa 2.5 m/s 0.0 mm -4.0° 1023.1 hPa 2.5 m/s 0.0 mm
08:00 -4.2° 1024.2 hPa 2.5 m/s 0.0 mm -4.2° 1024.2 hPa 2.5 m/s 0.0 mm
11:00 -4.0° 1025.9 hPa 2.6 m/s 0.0 mm -4.0° 1025.9 hPa 2.6 m/s 0.0 mm
14:00 -3.6° 1026.3 hPa 2.4 m/s 0.0 mm -3.6° 1026.3 hPa 2.4 m/s 0.0 mm
17:00 -4.5° 1027.0 hPa 2.3 m/s 0.0 mm -4.5° 1027.0 hPa 2.3 m/s 0.0 mm
20:00 -4.7° 1027.7 hPa 2.1 m/s 0.0 mm -4.7° 1027.7 hPa 2.1 m/s 0.0 mm
23:00 -4.9° 1027.6 hPa 1.3 m/s 0.0 mm -4.9° 1027.6 hPa 1.3 m/s 0.0 mm
 09:28     15:15    Daglengte: 5:47 Woensdag 20 Dec
02:00 -4.6° 1027.4 hPa 1.0 m/s 0.0 mm -4.6° 1027.4 hPa 1.0 m/s 0.0 mm
05:00 -4.1° 1026.2 hPa 0.4 m/s 0.0 mm -4.1° 1026.2 hPa 0.4 m/s 0.0 mm
08:00 -2.9° 1025.6 hPa 1.4 m/s 0.0 mm -2.9° 1025.6 hPa 1.4 m/s 0.0 mm
11:00 -1.1° 1025.1 hPa 2.1 m/s 0.0 mm -1.1° 1025.1 hPa 2.1 m/s 0.0 mm
14:00 0.7° 1023.7 hPa 2.5 m/s 0.0 mm 0.7° 1023.7 hPa 2.5 m/s 0.0 mm
17:00 1.0° 1022.7 hPa 2.7 m/s 0.3 mm 1.0° 1022.7 hPa 2.7 m/s 0.3 mm
20:00 0.7° 1023.4 hPa 2.6 m/s 1.6 mm 0.7° 1023.4 hPa 2.6 m/s 1.6 mm
23:00 0.3° 1024.3 hPa 1.7 m/s 1.9 mm 0.3° 1024.3 hPa 1.7 m/s 1.9 mm
 09:28     15:15    Daglengte: 5:47 Donderdag 21 Dec
02:00 0.3° 1024.7 hPa 1.8 m/s 3.1 mm 0.3° 1024.7 hPa 1.8 m/s 3.1 mm
05:00 0.7° 1024.1 hPa 2.4 m/s 0.2 mm 0.7° 1024.1 hPa 2.4 m/s 0.2 mm
08:00 0.5° 1023.7 hPa 2.5 m/s 0.2 mm 0.5° 1023.7 hPa 2.5 m/s 0.2 mm
11:00 -0.4° 1023.1 hPa 2.0 m/s 0.0 mm -0.4° 1023.1 hPa 2.0 m/s 0.0 mm
14:00 -0.1° 1020.1 hPa 1.0 m/s 0.0 mm -0.1° 1020.1 hPa 1.0 m/s 0.1 mm
17:00 1.0° 1018.1 hPa 3.6 m/s 0.0 mm 1.0° 1018.1 hPa 3.6 m/s 0.1 mm
20:00 0.9° 1015.5 hPa 4.7 m/s 0.3 mm 0.9° 1015.5 hPa 4.7 m/s 0.3 mm
23:00 1.0° 1012.2 hPa 5.7 m/s 0.2 mm 1.0° 1012.2 hPa 5.7 m/s 0.2 mm
 09:29     15:16    Daglengte: 5:47 Vrijdag 22 Dec
02:00 0.2° 1008.5 hPa 6.8 m/s 0.7 mm 0.2° 1008.5 hPa 6.8 m/s 0.7 mm
08:00 -1.8° 1001.4 hPa 6.8 m/s 2.1 mm -1.8° 1001.4 hPa 6.8 m/s 2.1 mm
14:00 -1.7° 997.5 hPa 5.5 m/s 2.3 mm -1.7° 997.5 hPa 5.5 m/s 2.3 mm
20:00 -1.9° 995.5 hPa 4.0 m/s 2.1 mm -1.9° 995.5 hPa 4.0 m/s 2.1 mm
 09:29     15:16    Daglengte: 5:47 Zaterdag 23 Dec
02:00 -2.1° 994.7 hPa 5.1 m/s 3.1 mm -2.1° 994.7 hPa 5.1 m/s 3.1 mm
08:00 -3.4° 994.3 hPa 5.8 m/s 2.2 mm -3.4° 994.3 hPa 5.8 m/s 2.2 mm
14:00 -4.6° 995.2 hPa 5.6 m/s 1.2 mm -4.6° 995.2 hPa 5.6 m/s 1.2 mm
20:00 -6.7° 996.6 hPa 3.4 m/s 0.3 mm -6.7° 996.6 hPa 3.4 m/s 0.3 mm
 09:29     15:17    Daglengte: 5:48 Zondag 24 Dec
02:00 -5.5° 998.2 hPa 2.4 m/s 0.3 mm -5.5° 998.2 hPa 2.4 m/s 0.3 mm
08:00 -5.9° 999.8 hPa 2.4 m/s 0.4 mm -5.9° 999.8 hPa 2.4 m/s 0.4 mm
14:00 -5.5° 1001.8 hPa 1.7 m/s 0.2 mm -5.5° 1001.8 hPa 1.7 m/s 0.2 mm
20:00 -1.9° 1007.7 hPa 1.5 m/s 0.6 mm
 09:29     15:18    Daglengte: 5:49 Maandag 25 Dec
02:00 -1.8° 1008.0 hPa 1.5 m/s 0.0 mm
08:00 -1.8° 1008.9 hPa 1.8 m/s 0.5 mm
14:00 -1.6° 1010.3 hPa 1.9 m/s 0.6 mm
20:00 -1.9° 1011.4 hPa 2.1 m/s 0.3 mm
 09:29     15:19    Daglengte: 5:50 Dinsdag 26 Dec
02:00 -1.9° 1012.5 hPa 2.4 m/s 0.4 mm
08:00 -2.2° 1013.6 hPa 1.7 m/s 0.2 mm
14:00 -1.8° 1015.1 hPa 1.8 m/s 0.2 mm
20:00 -1.9° 1015.8 hPa 1.5 m/s 0.2 mm
 09:29     15:20    Daglengte: 5:51 Woensdag 27 Dec
02:00 -1.8° 1016.3 hPa 1.6 m/s 0.5 mm
08:00 -1.6° 1016.4 hPa 2.3 m/s 0.5 mm
14:00 -0.7° 1015.3 hPa 3.6 m/s 1.5 mm
20:00 -0.8° 1015.1 hPa 3.2 m/s 1.1 mm
 09:29     15:21    Daglengte: 5:52 Donderdag 28 Dec
02:00 -0.9° 1016.5 hPa 1.9 m/s 0.4 mm
08:00 -0.7° 1017.6 hPa 1.4 m/s 0.3 mm
14:00 -0.4° 1019.6 hPa 1.4 m/s 0.4 mm
20:00 -0.9° 1021.1 hPa 1.2 m/s 0.4 mm
 09:29     15:22    Daglengte: 5:53 Vrijdag 29 Dec
02:00 -1.7° 1022.2 hPa 0.9 m/s 0.3 mm
08:00 -2.1° 1022.7 hPa 0.4 m/s 0.2 mm
14:00 -2.3° 1023.9 hPa 0.3 m/s 0.3 mm
20:00 -2.5° 1024.1 hPa 0.9 m/s 0.4 mm
 09:29     15:24    Daglengte: 5:55 Zaterdag 30 Dec
02:00 -2.6° 1024.6 hPa 1.5 m/s 0.3 mm
FMI Hirlam - 7.5 km EWN WRFDA - 12 km DWD ICON - 7 km GFS - 25 km Basiskaart






























































Updatetijd (Europe/Amsterdam) Resolutie Lengte Stap
FMI Hirlam 03:15, 09:15, 15:15, 21:15 7.5 km 49h 1h
EWN WRFDA 02:00, 08:00, 14:00, 20:00 12 km 73h 1h
DWD ICON 23:45, 05:45, 11:45, 17:45 7 km 75h 1h
GFS 02:15, 08:15, 14:15, 20:15 25 km 237h 3h
30+ mm
25-30 mm
20-25 mm
15-20 mm
10-15 mm
6-10 mm
4-6 mm
2-4 mm
1-2 mm
0.5-1 mm
0.2-0.5 mm
0.1-0.2 mm
30+ mm
25-30 mm
20-25 mm
15-20 mm
10-15 mm
6-10 mm
4-6 mm
2-4 mm
1-2 mm
0.5-1 mm
0.2-0.5 mm
0.1-0.2 mm
Sneeuwval
Natte sneeuw
Hagel
Vorst
30+ mm
25-30 mm
20-25 mm
15-20 mm
10-15 mm
6-10 mm
4-6 mm
2-4 mm
1-2 mm
0.5-1 mm
0.2-0.5 mm
0.1-0.2 mm
Sneeuwval
Natte sneeuw
Hagel
Vorst
Onweer
50 mm
40 mm
30 mm
26 mm
22 mm
18 mm
14 mm
10 mm
9 mm
8 mm
7 mm
6 mm
5 mm
4.5 mm
4 mm
3.5 mm
3 mm
2.5 mm
2 mm
1.5 mm
1 mm
0.8 mm
0.6 mm
0.4 mm
0.2 mm
0.05 mm
35°
30°
25°
20°
15°
10°
-5°
-10°
-15°
-20°
-25°
-30°
-35°
33> m/s
29 m/s
25 m/s
21 m/s
17 m/s
14 m/s
11 m/s
8 m/s
5 m/s
3 m/s
0 m/s
2600 J/kg
2400 J/kg
2200 J/kg
2000 J/kg
1800 J/kg
1600 J/kg
1400 J/kg
1200 J/kg
1000 J/kg
800 J/kg
600 J/kg
400 J/kg
200 J/kg
70 dBZ
65 dBZ
60 dBZ
55 dBZ
50 dBZ
45 dBZ
40 dBZ
35 dBZ
30 dBZ
25 dBZ
20 dBZ
15 dBZ
10 dBZ
5 dBZ
-1 K
-2 K
-3 K
-4 K
-5 K
-6 K
-7 K
-8 K
-9 K
950 m²/s²
900 m²/s²
850 m²/s²
800 m²/s²
750 m²/s²
700 m²/s²
650 m²/s²
600 m²/s²
550 m²/s²
500 m²/s²
450 m²/s²
400 m²/s²
350 m²/s²
300 m²/s²
250 m²/s²
200 m²/s²
150 m²/s²
100 m²/s²
46 m/s
44 m/s
42 m/s
40 m/s
38 m/s
36 m/s
34 m/s
32 m/s
30 m/s
28 m/s
26 m/s
24 m/s
22 m/s
20 m/s
16 m/s
12 m/s
8 m/s
4 m/s
30 m/s
28 m/s
26 m/s
24 m/s
22 m/s
20 m/s
18 m/s
16 m/s
14 m/s
12 m/s
10 m/s
8 m/s
6 m/s
4 m/s
2 m/s
3.0
2.8
2.6
2.4
2.2
2.0
1.8
1.6
1.4
1.2
1.0
0.8
0.6
0.4
0.2
15
14
13
12
11
10
9
8
7
6
5
4
3
2
1
90%
80%
70%
60%
50%
40%
30%
20%
10%
42
40
38
36
34
32
30
28
26
24
22
20
18
16
14
12
90+ cm
80-90 cm
70-80 cm
60-70 cm
50-60 cm
40-50 cm
30-40 cm
20-30 cm
10-20 cm
1-10 cm
Sneeuwval
Natte sneeuw
Regen
>120 mm
115 mm
110 mm
105 mm
100 mm
95 mm
90 mm
85 mm
80 mm
75 mm
70 mm
65 mm
60 mm
55 mm
50 mm
45 mm
45 mm
40 mm
35 mm
30 mm
25 mm
20 mm
15 mm
10 mm
5 mm
0.1 mm
960 hPa
880 hPa
800 hPa
720 hPa
640 hPa
560 hPa
584 gpdm
568 gpdm
552 gpdm
536 gpdm
520 gpdm
504 gpdm
488 gpdm
Extreem zwaar Noodweer Kans op onweer
15% 15% 5% 50% 15%

Dag




Kaart






35°
30°
25°
20°
15°
10°
-5°
-10°
-15°
-20°
-25°
-30°
-35°
33> m/s
29 m/s
25 m/s
21 m/s
17 m/s
14 m/s
11 m/s
8 m/s
5 m/s
3 m/s
0 m/s
Extreem zwaar Noodweer Kans op onweer
15% 15% 5% 50% 15%
>120 mm
115 mm
110 mm
105 mm
100 mm
95 mm
90 mm
85 mm
80 mm
75 mm
70 mm
65 mm
60 mm
55 mm
50 mm
45 mm
45 mm
40 mm
35 mm
30 mm
25 mm
20 mm
15 mm
10 mm
5 mm
0.1 mm
Onweer risico kaarten - De groene en gele kleur geeft de kans op onweer aan binnen 40 km van een punt. Oranje, rood en violet hebben hetzelfde niveau zoals je het ziet op estofex.org waaronder ook de kans op hagel en supercells.

dBZ - dBZ staat voor decibel ten opzichte van Z.

Cape - Convective available potential energy (CAPE), is de totale hoeveelheid energie die een luchtpakketje nodig heeft om zover mogelijk te stijgen in de atmosfeer.

K Index - K-Index wordt berekend door de Vertical Totals (VT) en het verschil tussen de 850 hPa temperatuur en de 700 hPa dauwpuntsdepressie (Tdd 700) bij elkaar op te tellen.

TT Index - Convectie index wordt gebruikt voor het voorspellen van zware buien of onweer.

WRF - The Weather Research and Forecasting (WRF) is een volgende generatie mesoscale numeriek weersvoorspelling systeem ontworpen om zowel de operationele planning als het atmosferisch onderzoek te dienen. WRF is a cooperatie tussen het National Center for Atmospheric Research (NCAR), National Centers for Environmental Prediction (NCEP), Forecast Systems Laboratory (FSL), Air Force Weather Agency (AFWA), Naval Research Laboratory, University of Oklahoma, en de Federal Aviation Administration (FAA). Deze software draait op onze server.

WRFDA - Een meer geavanceerde versie van WRF

Arome - Het 2.5 km Arome model. Verzorgd door het Noors Meteorologisch Instituut.

MET Norway - De proff-default 4km meteorological data is een beste keus selectie van meteorologische modellen gebruikt door met.no die zijn geïnterpoleerd tot een gemeenschappelijke dataset. Verzorgd door het Noorse Meteorologisch Instituut.

SMHI - Het Hirlam model verzorgd door het Zweeds meteorologisch instituut.

FMI - Het Hirlam model verzorgd door het Fins meteorologisch instituut. Dekking alleen Finland.

GFS - Het Global Forecast Systeem (GFS) is een wereldwijd numerieke weersvoorspelling computermodel, gerund door NOAA.

GEM-GDPS - Het GEM-GDPS is a wereldwijd numeriek weersvoorspelling computermodel verzorgd door het Canadees Meteorologisch Centrum.

Credits/Info: Dank aan Stefan Gofferje van sääkeskus.fi voor enkele formules van GrADS. Info: Wikipedia.

Betrouwbaarheid van de verwachting

NB! 2015-03-29: Rebuilding the accuracy-test!

EWNACC
Day 1 Good forecasts

Dag 1 Tmax

Dag 2 Tmax

Geladen verwachtingen TOP 50

Totaal geladen verwachtingen:
Plaats Latitude Longitude Verwachtingen Plaats Latitude Longitude Verwachtingen